FW0394 Weather Reports


Display with metric or nautical units.
time (UTC)temp
F
wind
direction
speed
MPH
gust
MPH
rain 1hr
in
rain 24hr
in
rain mn
in
humidity
%
barometer
mb
20260506135003 46 13 1.0 5.0 0.00 0.00 0.00 51 1018.4
20260506134713 46 359 2.0 5.0 0.00 0.00 0.00 50 1018.4
20260506134003 46 323 1.0 4.0 0.00 0.00 0.00 51 1018.3
20260506133504 45 301 1.0 4.0 0.00 0.00 0.00 54 1018.2
20260506133003 45 306 1.0 3.0 0.00 0.00 0.00 52 1018.2
20260506132503 45 322 1.0 3.0 0.00 0.00 0.00 54 1018.1
20260506132003 44 324 2.0 5.0 0.00 0.00 0.00 58 1018.0
20260506131503 44 317 1.0 5.0 0.00 0.00 0.00 59 1018.0
20260506131003 44 300 1.0 3.0 0.00 0.00 0.00 58 1018.0
20260506130503 43 300 1.0 3.0 0.00 0.00 0.00 59 1017.8
20260506130214 43 301 1.0 3.0 0.00 0.00 0.00 60 1017.8
20260506125713 43 302 1.0 3.0 0.00 0.00 0.00 60 1017.8
20260506125003 42 299 1.0 3.0 0.00 0.00 0.00 59 1017.8
20260506124503 42 302 1.0 4.0 0.00 0.00 0.00 60 1017.8
20260506124214 42 309 1.0 4.0 0.00 0.00 0.00 59 1017.8
20260506123504 41 326 1.0 3.0 0.00 0.00 0.00 62 1017.7
20260506123003 41 333 1.0 2.0 0.00 0.00 0.00 62 1017.6
20260506122503 40 333 1.0 2.0 0.00 0.00 0.00 63 1017.6
20260506122003 40 334 1.0 3.0 0.00 0.00 0.00 64 1017.3
20260506121503 39 334 0.0 4.0 0.00 0.00 0.00 64 1017.4
20260506121003 39 333 0.0 4.0 0.00 0.00 0.00 67 1017.2
20260506120503 38 334 0.0 1.0 0.00 0.00 0.00 67 1017.1
20260506120003 38 334 0.0 1.0 0.00 0.00 0.00 68 1016.9
20260506115503 38 0 0.0 1.0 0.00 0.00 0.00 68 1017.0
20260506115003 38 334 0.0 1.0 0.00 0.00 0.00 68 1017.0
20260506114503 38 334 0.0 1.0 0.00 0.00 0.00 68 1016.9
20260506114003 38 334 0.0 1.0 0.00 0.00 0.00 68 1016.9
20260506113503 38 0 0.0 0.0 0.00 0.00 0.00 66 1016.9
20260506113003 38 0 0.0 0.0 0.00 0.00 0.00 66 1016.7
20260506112503 38 0 0.0 0.0 0.00 0.00 0.00 66 1016.7
20260506112003 38 0 0.0 0.0 0.00 0.00 0.00 66 1016.5
20260506111003 39 334 0.0 1.0 0.00 0.00 0.00 65 1016.7
20260506110503 39 334 0.0 1.0 0.00 0.00 0.00 65 1016.6
20260506110003 39 0 0.0 0.0 0.00 0.00 0.00 65 1016.5
20260506105714 39 0 0.0 0.0 0.00 0.00 0.00 64 1016.5
20260506105003 40 0 0.0 0.0 0.00 0.00 0.00 64 1016.6
20260506104503 40 0 0.0 0.0 0.00 0.00 0.00 63 1016.7
20260506104003 40 0 0.0 0.0 0.00 0.00 0.00 61 1016.6
20260506103503 40 0 0.0 1.0 0.00 0.00 0.00 60 1016.6
20260506103003 41 334 0.0 1.0 0.00 0.00 0.00 60 1016.5
20260506102503 41 0 0.0 1.0 0.00 0.00 0.00 59 1016.6
20260506102003 41 334 0.0 2.0 0.00 0.00 0.00 59 1016.5
20260506101714 41 334 0.0 2.0 0.00 0.00 0.00 60 1016.6
20260506101213 41 334 0.0 2.0 0.00 0.00 0.00 58 1016.5
20260506100503 42 334 0.0 1.0 0.00 0.00 0.00 57 1016.4
20260506100004 42 334 0.0 1.0 0.00 0.00 0.00 58 1016.4
20260506095503 42 334 0.0 1.0 0.00 0.00 0.00 57 1016.3
20260506095003 42 333 0.0 1.0 0.00 0.00 0.00 56 1016.3
20260506094503 42 334 0.0 1.0 0.00 0.00 0.00 57 1016.3
20260506094003 42 334 0.0 1.0 0.00 0.00 0.00 56 1016.3
20260506093713 43 334 0.0 1.0 0.00 0.00 0.00 58 1016.3
20260506093003 43 333 0.0 1.0 0.00 0.00 0.00 55 1016.3
20260506092714 43 335 0.0 4.0 0.00 0.00 0.00 55 1016.1
20260506092003 43 336 0.0 4.0 0.00 0.00 0.00 54 1016.0
20260506091503 44 345 0.0 1.0 0.00 0.00 0.00 56 1015.9
20260506091003 44 345 0.0 1.0 0.00 0.00 0.00 55 1015.9
20260506090503 44 345 0.0 1.0 0.00 0.00 0.00 56 1015.9
20260506090003 44 345 0.0 1.0 0.00 0.00 0.00 53 1015.9
20260506085713 44 345 0.0 1.0 0.00 0.00 0.00 53 1015.8
20260506085003 44 345 0.0 3.0 0.00 0.00 0.00 52 1015.8
20260506084003 45 346 0.0 1.0 0.00 0.00 0.00 54 1015.7
20260506083713 45 346 0.0 1.0 0.00 0.00 0.00 55 1015.7
20260506083003 45 346 0.0 2.0 0.00 0.00 0.00 53 1015.6
20260506082504 45 346 0.0 2.0 0.00 0.00 0.00 52 1015.6
20260506082003 45 0 0.0 1.0 0.00 0.00 0.00 51 1015.6
20260506081503 45 346 0.0 1.0 0.00 0.00 0.00 51 1015.5
20260506081214 45 346 0.0 2.0 0.00 0.00 0.00 50 1015.4
20260506080503 46 346 0.0 2.0 0.00 0.00 0.00 51 1015.5
20260506073503 46 0 0.0 0.0 0.00 0.01 0.00 47 1015.1
20260506073003 46 0 0.0 0.0 0.00 0.01 0.00 46 1015.1
20260506072504 46 0 0.0 0.0 0.00 0.01 0.00 46 1015.1
20260506072003 46 0 0.0 0.0 0.00 0.01 0.00 45 1015.1
20260506071503 47 351 0.0 1.0 0.00 0.01 0.00 45 1015.1
20260506071003 47 351 0.0 2.0 0.00 0.01 0.00 45 1015.0
20260506070503 47 352 1.0 3.0 0.00 0.01 0.00 45 1015.1
20260506062003 48 27 1.0 4.0 0.00 0.02 0.00 43 1015.1
20260506061503 48 29 1.0 5.0 0.00 0.02 0.00 44 1015.1
20260506061003 48 25 1.0 5.0 0.00 0.02 0.00 43 1015.0
20260506060503 48 7 1.0 3.0 0.00 0.02 0.00 43 1015.0
20260506051003 49 33 1.0 6.0 0.00 0.03 0.00 42 1014.5
20260506050503 49 21 1.0 6.0 0.00 0.03 0.00 41 1014.5
20260506050215 49 328 0.0 3.0 0.00 0.03 0.00 42 1014.5
20260506045004 50 327 1.0 3.0 0.00 0.03 0.03 41 1014.4
20260506044503 50 329 1.0 4.0 0.00 0.03 0.03 41 1014.3
20260506044003 50 341 1.0 4.0 0.00 0.03 0.03 43 1014.2
20260506043503 50 355 1.0 4.0 0.00 0.03 0.03 41 1014.3
20260506043003 50 331 1.0 6.0 0.00 0.03 0.03 41 1014.4
20260506042503 50 319 1.0 6.0 0.00 0.03 0.03 41 1014.3
20260506042004 50 323 1.0 4.0 0.00 0.03 0.03 40 1014.3
20260506041503 50 326 0.0 4.0 0.00 0.03 0.03 40 1014.2
20260506041003 50 327 1.0 4.0 0.00 0.03 0.03 41 1014.1
20260506040503 50 326 1.0 3.0 0.00 0.03 0.03 40 1014.2
20260506040212 50 325 1.0 4.0 0.00 0.03 0.03 40 1014.0
20260506035503 50 333 1.0 4.0 0.00 0.03 0.03 40 1014.0
20260506035003 50 355 1.0 4.0 0.00 0.03 0.03 40 1014.1
20260506034503 51 8 1.0 4.0 0.00 0.03 0.03 39 1014.2
20260506034003 51 7 1.0 4.0 0.00 0.03 0.03 39 1014.1
20260506033503 51 1 1.0 4.0 0.00 0.03 0.03 39 1014.0
20260506033212 51 3 1.0 4.0 0.00 0.03 0.03 39 1014.1
20260506032503 51 2 0.0 3.0 0.00 0.03 0.03 41 1013.9
20260506032003 51 344 1.0 3.0 0.00 0.03 0.03 40 1013.8
20260506031503 51 327 1.0 4.0 0.00 0.03 0.03 39 1013.8
20260506031212 51 327 1.0 6.0 0.00 0.03 0.03 38 1013.8
20260506030503 51 6 1.0 6.0 0.00 0.03 0.03 39 1013.7
20260506030004 51 26 1.0 4.0 0.00 0.03 0.03 40 1013.7
20260506025503 51 352 1.0 3.0 0.00 0.03 0.03 38 1013.6
20260506025003 51 347 1.0 4.0 0.00 0.03 0.03 37 1013.6
20260506024003 52 313 1.0 4.0 0.00 0.03 0.03 36 1013.4
20260506023503 52 335 1.0 5.0 0.00 0.03 0.03 37 1013.4
20260506023214 52 338 1.0 5.0 0.00 0.03 0.03 37 1013.3
20260506022503 52 346 1.0 8.0 0.00 0.03 0.03 37 1013.2
20260506022003 52 19 2.0 8.0 0.00 0.03 0.03 36 1013.2
20260506021503 52 53 2.0 5.0 0.00 0.03 0.03 37 1013.1
20260506021214 52 39 2.0 6.0 0.00 0.03 0.03 36 1013.0
20260506020503 52 15 1.0 6.0 0.00 0.03 0.03 38 1013.0
20260506020003 52 44 2.0 6.0 0.00 0.03 0.03 36 1013.0
20260506015503 53 22 2.0 6.0 0.00 0.03 0.03 36 1012.8
20260506015003 53 330 2.0 5.0 0.00 0.03 0.03 35 1012.8
20260506014504 53 328 2.0 8.0 0.00 0.03 0.03 37 1012.8
20260506014003 53 338 2.0 8.0 0.00 0.03 0.03 36 1012.5
20260506013503 53 333 2.0 7.0 0.00 0.03 0.03 37 1012.5
20260506013003 53 340 2.0 10.0 0.00 0.03 0.03 38 1012.4
20260506012503 53 345 2.0 10.0 0.00 0.03 0.03 36 1012.4
20260506012003 53 285 2.0 6.0 0.00 0.03 0.03 37 1012.3
20260506011503 53 317 2.0 5.0 0.00 0.03 0.03 38 1012.4
20260506011003 53 344 2.0 8.0 0.00 0.03 0.03 36 1012.2
20260506010503 54 340 2.0 8.0 0.00 0.03 0.03 38 1012.1
20260506010003 54 342 2.0 7.0 0.00 0.03 0.03 35 1012.1
20260506005503 54 350 2.0 6.0 0.00 0.03 0.03 36 1012.1
20260506005003 54 333 2.0 8.0 0.00 0.03 0.03 35 1011.9
20260506004503 54 321 3.0 10.0 0.00 0.03 0.03 36 1012.0
20260506004003 54 327 2.0 10.0 0.00 0.03 0.03 36 1012.0
20260506003503 54 350 3.0 11.0 0.00 0.03 0.03 36 1012.0
20260506003003 54 349 3.0 11.0 0.00 0.03 0.03 35 1011.8
20260506002503 54 333 3.0 12.0 0.00 0.03 0.03 35 1011.8
20260506002003 54 333 3.0 12.0 0.00 0.03 0.03 36 1011.9
20260506001503 54 318 3.0 11.0 0.00 0.03 0.03 37 1011.8
20260506001003 54 332 3.0 14.0 0.00 0.03 0.03 35 1011.8
20260506000503 54 352 2.0 14.0 0.00 0.03 0.03 35 1011.9
20260506000003 54 16 2.0 8.0 0.00 0.03 0.03 36 1011.8
20260505235503 55 13 3.0 11.0 0.00 0.03 0.03 36 1011.8
20260505235003 55 338 3.0 14.0 0.00 0.03 0.03 36 1011.8
20260505234714 55 334 3.0 14.0 0.00 0.03 0.03 35 1011.8
20260505234004 55 354 3.0 10.0 0.00 0.03 0.03 36 1011.7
20260505233503 55 334 4.0 13.0 0.00 0.03 0.03 34 1011.7
20260505233003 55 341 4.0 13.0 0.00 0.03 0.03 36 1011.6
20260505232714 56 348 4.0 9.0 0.00 0.03 0.03 36 1011.6
20260505232003 56 352 3.0 9.0 0.00 0.03 0.03 35 1011.5
20260505231503 56 330 2.0 7.0 0.00 0.03 0.03 34 1011.5
20260505231004 57 331 2.0 12.0 0.00 0.03 0.03 35 1011.5
20260505230503 57 344 3.0 12.0 0.00 0.03 0.03 35 1011.5
20260505225504 57 306 3.0 10.0 0.00 0.03 0.03 36 1011.4
20260505225003 57 290 2.0 8.0 0.00 0.03 0.03 36 1011.4
20260505224713 57 311 2.0 11.0 0.00 0.03 0.03 35 1011.3
20260505224003 57 325 3.0 11.0 0.00 0.03 0.03 34 1011.4
20260505223503 58 300 3.0 9.0 0.00 0.03 0.03 35 1011.3
20260505223003 58 340 3.0 9.0 0.00 0.03 0.03 37 1011.4
20260505222503 58 3 2.0 8.0 0.00 0.03 0.03 34 1011.2
20260505222003 58 287 3.0 8.0 0.00 0.03 0.03 37 1011.2
20260505221503 58 292 3.0 9.0 0.00 0.03 0.03 34 1011.2
20260505221004 58 305 2.0 9.0 0.00 0.03 0.03 37 1011.2
20260505220503 58 345 3.0 9.0 0.00 0.03 0.03 37 1011.2
20260505220003 58 333 3.0 14.0 0.00 0.03 0.03 37 1011.3
20260505215503 58 285 3.0 14.0 0.00 0.03 0.03 37 1011.3
20260505215003 58 304 3.0 8.0 0.00 0.03 0.03 36 1011.2
20260505214003 58 115 1.0 5.0 0.00 0.03 0.03 36 1011.4
20260505213503 58 332 2.0 5.0 0.00 0.03 0.03 40 1011.4
20260505213003 57 304 2.0 9.0 0.00 0.03 0.03 39 1011.4
20260505212503 57 307 3.0 9.0 0.00 0.03 0.03 37 1011.5
20260505212003 57 310 3.0 10.0 0.00 0.03 0.03 35 1011.5
20260505211503 57 316 3.0 10.0 0.00 0.03 0.03 38 1011.7
20260505211003 57 346 3.0 8.0 0.00 0.03 0.03 39 1011.7
20260505210503 57 342 3.0 14.0 0.00 0.03 0.03 37 1011.7
20260505210003 58 339 3.0 15.0 0.00 0.03 0.03 37 1011.7
20260505205503 58 305 3.0 15.0 0.00 0.03 0.03 36 1011.8
20260505205214 58 283 3.0 12.0 0.00 0.03 0.03 39 1011.7
20260505204503 58 274 4.0 13.0 0.00 0.03 0.03 37 1011.8
20260505204003 59 296 3.0 13.0 0.00 0.04 0.03 36 1011.8
20260505203504 59 296 4.0 10.0 0.00 0.04 0.03 37 1011.7
20260505203003 59 306 4.0 12.0 0.00 0.04 0.03 38 1011.8
20260505202503 60 312 3.0 12.0 0.00 0.04 0.03 35 1011.9
20260505202003 60 304 3.0 9.0 0.00 0.04 0.03 38 1011.9
20260505201503 60 291 4.0 10.0 0.00 0.04 0.03 35 1012.0
20260505201003 60 287 4.0 10.0 0.00 0.04 0.03 38 1012.0
20260505200503 60 297 4.0 12.0 0.00 0.04 0.03 34 1012.1
20260505200003 60 282 5.0 16.0 0.00 0.04 0.03 35 1012.0
20260505195503 60 291 5.0 16.0 0.00 0.04 0.03 36 1012.0
20260505195003 59 322 3.0 8.0 0.00 0.04 0.03 38 1012.0
20260505194503 59 312 3.0 13.0 0.00 0.04 0.03 39 1012.1
20260505194003 59 338 4.0 13.0 0.00 0.04 0.03 42 1012.2
20260505193504 59 315 4.0 11.0 0.00 0.04 0.03 39 1012.3
20260505193003 58 283 3.0 11.0 0.00 0.04 0.03 38 1012.3
20260505192503 58 300 3.0 10.0 0.00 0.04 0.03 38 1012.3
20260505192003 58 297 3.0 13.0 0.00 0.04 0.03 39 1012.4
20260505191503 58 305 3.0 13.0 0.00 0.04 0.03 43 1012.4
20260505191003 58 301 3.0 11.0 0.00 0.04 0.03 41 1012.5
20260505190504 58 317 2.0 7.0 0.00 0.04 0.03 45 1012.4
20260505190003 57 316 2.0 7.0 0.00 0.04 0.03 43 1012.4
20260505185714 57 272 2.0 9.0 0.00 0.04 0.03 44 1012.5
20260505185213 57 262 3.0 9.0 0.00 0.04 0.03 46 1012.7
20260505184503 57 338 3.0 10.0 0.00 0.04 0.03 45 1012.7
20260505184003 56 41 3.0 10.0 0.00 0.04 0.03 40 1012.6
20260505183503 56 275 3.0 9.0 0.00 0.04 0.03 44 1012.7
20260505183003 56 159 2.0 8.0 0.00 0.04 0.03 43 1012.9
20260505182503 56 84 2.0 6.0 0.00 0.04 0.03 48 1012.9
20260505182003 56 8 2.0 6.0 0.00 0.04 0.03 41 1013.0
20260505181213 57 306 3.0 8.0 0.00 0.04 0.03 41 1013.1
20260505180504 58 277 3.0 10.0 0.00 0.04 0.03 47 1013.0
20260505180003 58 270 2.0 9.0 0.00 0.04 0.03 46 1013.1
20260505175714 58 269 2.0 9.0 0.00 0.04 0.03 43 1013.1
20260505175003 57 275 3.0 8.0 0.00 0.04 0.03 50 1012.9
20260505174503 56 270 2.0 8.0 0.00 0.04 0.03 47 1012.9
20260505174003 55 41 3.0 9.0 0.00 0.04 0.03 47 1012.8
20260505173503 55 27 3.0 9.0 0.00 0.04 0.03 47 1012.9
20260505173003 54 22 2.0 4.0 0.00 0.04 0.03 45 1013.1
20260505172503 54 352 3.0 9.0 0.00 0.04 0.03 44 1013.3
20260505172003 55 350 3.0 9.0 0.00 0.04 0.03 49 1013.3
20260505171503 54 93 2.0 8.0 0.00 0.04 0.03 48 1013.2
20260505171003 54 262 2.0 8.0 0.00 0.04 0.03 51 1013.2
20260505170503 53 287 3.0 11.0 0.00 0.04 0.03 48 1013.2
20260505170003 53 329 2.0 11.0 0.00 0.04 0.03 53 1013.4
20260505165503 53 342 2.0 4.0 0.00 0.04 0.03 49 1013.3
20260505165003 53 323 2.0 7.0 0.00 0.04 0.03 52 1013.3
20260505164503 53 285 2.0 7.0 0.00 0.04 0.03 53 1013.3
20260505164003 53 280 3.0 7.0 0.00 0.04 0.03 57 1013.3
20260505163503 52 337 2.0 6.0 0.00 0.04 0.03 60 1013.3
20260505163009 52 10 2.0 4.0 0.00 0.04 0.03 57 1013.3
20260505162713 51 336 1.0 4.0 0.00 0.04 0.03 57 1013.2
20260505162214 51 263 2.0 7.0 0.00 0.04 0.03 58 1013.1
20260505161503 51 262 2.0 6.0 0.00 0.04 0.03 60 1012.9
20260505161003 51 309 2.0 6.0 0.00 0.04 0.03 59 1013.0
20260505160503 51 330 2.0 5.0 0.00 0.04 0.03 60 1012.8
20260505153003 50 293 2.0 8.0 0.00 0.04 0.03 61 1012.8
20260505152504 49 288 2.0 8.0 0.00 0.04 0.03 61 1012.9
20260505152003 49 315 1.0 7.0 0.00 0.04 0.03 60 1012.8
20260505151503 49 333 2.0 6.0 0.00 0.04 0.03 61 1012.6
20260505151214 49 325 2.0 5.0 0.00 0.04 0.03 60 1012.5
20260505150503 49 326 2.0 4.0 0.00 0.04 0.03 60 1012.5